When you browse on this site, cookies collect data to enhance your experience and personalize the content and advertising you see.
Visit our Privacy Policy to learn more. By continuing to use the site, you agree to this use of cookies and data.
  • In Slovakia
  • List of Countries
  • For 7 days
  • Water Temperature
  • Satellite Maps
  • Weather Map
  • Weather Widgets
  • user-avatar
    Login

    Hourly Weather Rakczyn

    Today, 10 December, Monday

    Time Temperature Precipitation Wind Pressure Humidity
    00:00 +4°C° 0.3 mm 6 mps 736 mmHg 82%
    01:00 +4°C° 0.3 mm 7 mps 736 mmHg 82%
    02:00 +4°C° 0.5 mm 7 mps 737 mmHg 81%
    03:00 +4°C° 0.5 mm 7 mps 737 mmHg 80%
    04:00 +4°C° 0.5 mm 8 mps 737 mmHg 79%
    05:00 +2°C° 0.2 mm 8 mps 738 mmHg 78%
    06:00 +2°C° 0.2 mm 8 mps 738 mmHg 76%
    07:00 +2°C° 0.2 mm 7 mps 739 mmHg 74%
    08:00 +1°C° 0 mm 8 mps 739 mmHg 73%
    09:00 +1°C° 0 mm 8 mps 740 mmHg 72%
    10:00 +1°C° 0 mm 8 mps 741 mmHg 71%
    11:00 +1°C° 0.1 mm 8 mps 741 mmHg 69%
    12:00 +2°C° 0.1 mm 8 mps 741 mmHg 68%
    13:00 +2°C° 0.1 mm 8 mps 742 mmHg 66%
    14:00 +2°C° 0.1 mm 7 mps 742 mmHg 67%
    15:00 +2°C° 0.1 mm 6 mps 742 mmHg 69%
    16:00 +2°C° 0.1 mm 6 mps 743 mmHg 70%
    17:00 +1°C° 0 mm 6 mps 743 mmHg 71%
    18:00 +1°C° 0 mm 5 mps 743 mmHg 73%
    19:00 0°C° 0 mm 5 mps 743 mmHg 75%
    20:00 0°C° 0 mm 5 mps 743 mmHg 76%
    21:00 0°C° 0 mm 5 mps 743 mmHg 78%
    22:00 0°C° 0 mm 5 mps 743 mmHg 79%
    23:00 -1°C° 0 mm 5 mps 743 mmHg 81%

    Tomorrow, 11 December, Tuesday

    Time Temperature Precipitation Wind Pressure Humidity
    00:00 -1°C° 0 mm 5 mps 743 mmHg 83%
    01:00 -1°C° 0 mm 5 mps 743 mmHg 85%
    02:00 -1°C° 0.1 mm 4 mps 743 mmHg 86%
    03:00 -1°C° 0.1 mm 4 mps 743 mmHg 87%
    04:00 -1°C° 0.1 mm 4 mps 743 mmHg 87%
    05:00 -1°C° 0.2 mm 4 mps 743 mmHg 88%
    06:00 0°C° 0.2 mm 4 mps 743 mmHg 88%
    07:00 0°C° 0.2 mm 4 mps 743 mmHg 88%
    08:00 0°C° 0.3 mm 4 mps 743 mmHg 88%
    09:00 0°C° 0.3 mm 4 mps 743 mmHg 88%
    10:00 0°C° 0.3 mm 4 mps 743 mmHg 88%
    11:00 +1°C° 0.2 mm 3 mps 744 mmHg 88%
    12:00 +2°C° 0.2 mm 3 mps 744 mmHg 89%
    13:00 +3°C° 0.2 mm 2 mps 744 mmHg 89%
    14:00 +3°C° 0.2 mm 2 mps 744 mmHg 91%
    15:00 +2°C° 0.2 mm 2 mps 745 mmHg 92%
    16:00 +3°C° 0.2 mm 1 mps 745 mmHg 94%
    17:00 +3°C° 0.2 mm 1 mps 745 mmHg 94%
    18:00 +2°C° 0.2 mm 2 mps 746 mmHg 95%
    19:00 +2°C° 0.2 mm 2 mps 746 mmHg 96%
    20:00 +2°C° 0.1 mm 2 mps 747 mmHg 95%
    21:00 +2°C° 0.1 mm 2 mps 747 mmHg 95%
    22:00 +1°C° 0.1 mm 2 mps 748 mmHg 95%
    23:00 0°C° 0.1 mm 3 mps 748 mmHg 95%

    Day after tomorrow, 12 December, Wednesday

    Time Temperature Precipitation Wind Pressure Humidity
    00:00 0°C° 0.1 mm 3 mps 748 mmHg 94%
    01:00 0°C° 0.1 mm 3 mps 749 mmHg 94%
    02:00 0°C° 0.1 mm 3 mps 749 mmHg 94%
    03:00 0°C° 0.1 mm 3 mps 749 mmHg 94%
    04:00 -1°C° 0.1 mm 3 mps 750 mmHg 93%
    05:00 -1°C° 0 mm 3 mps 750 mmHg 93%
    06:00 -1°C° 0 mm 2 mps 750 mmHg 94%
    07:00 -2°C° 0 mm 2 mps 751 mmHg 94%
    08:00 -2°C° 0 mm 2 mps 751 mmHg 92%
    09:00 -1°C° 0 mm 2 mps 752 mmHg 90%
    10:00 -1°C° 0 mm 2 mps 752 mmHg 89%
    11:00 -1°C° 0 mm 2 mps 752 mmHg 87%
    12:00 +1°C° 0 mm 2 mps 752 mmHg 86%
    13:00 +1°C° 0 mm 2 mps 752 mmHg 85%
    14:00 -1°C° 0 mm 2 mps 752 mmHg 87%
    15:00 -1°C° 0 mm 2 mps 752 mmHg 89%
    16:00 0°C° 0 mm 1 mps 753 mmHg 92%
    17:00 0°C° 0 mm 1 mps 753 mmHg 92%
    18:00 0°C° 0 mm 1 mps 753 mmHg 92%
    19:00 0°C° 0 mm 1 mps 753 mmHg 93%
    20:00 0°C° 0 mm 1 mps 753 mmHg 93%
    21:00 0°C° 0 mm 1 mps 754 mmHg 93%
    22:00 0°C° 0 mm 1 mps 754 mmHg 93%
    23:00 0°C° 0 mm 1 mps 754 mmHg 93%

    13 December, Thursday

    Time Temperature Precipitation Wind Pressure Humidity
    00:00 0°C° 0 mm 1 mps 754 mmHg 93%
    01:00 0°C° 0 mm 1 mps 754 mmHg 93%
    02:00 0°C° 0 mm 1 mps 754 mmHg 93%
    03:00 0°C° 0 mm 1 mps 754 mmHg 93%
    04:00 0°C° 0 mm 1 mps 754 mmHg 93%
    05:00 0°C° 0 mm 1 mps 754 mmHg 93%
    06:00 0°C° 0 mm 1 mps 754 mmHg 94%
    07:00 0°C° 0 mm 1 mps 754 mmHg 94%
    08:00 +1°C° 0 mm 1 mps 754 mmHg 92%
    09:00 +1°C° 0 mm 1 mps 754 mmHg 91%
    10:00 +1°C° 0 mm 1 mps 754 mmHg 90%
    11:00 +1°C° 0 mm 1 mps 754 mmHg 88%
    12:00 +1°C° 0 mm 1 mps 753 mmHg 87%
    13:00 +2°C° 0 mm 1 mps 753 mmHg 85%
    14:00 +1°C° 0 mm 1 mps 753 mmHg 86%
    15:00 +1°C° 0 mm 1 mps 753 mmHg 87%
    16:00 +1°C° 0 mm 1 mps 753 mmHg 88%
    17:00 +1°C° 0 mm 1 mps 753 mmHg 89%
    18:00 +1°C° 0 mm 1 mps 752 mmHg 90%
    19:00 +1°C° 0 mm 1 mps 752 mmHg 91%
    20:00 +1°C° 0 mm 1 mps 752 mmHg 91%
    21:00 +1°C° 0 mm 1 mps 752 mmHg 91%
    22:00 0°C° 0 mm 1 mps 753 mmHg 91%
    23:00 0°C° 0 mm 1 mps 753 mmHg 91%

    14 December, Friday

    Time Temperature Precipitation Wind Pressure Humidity
    00:00 0°C° 0 mm 1 mps 753 mmHg 90%
    01:00 0°C° 0 mm 1 mps 753 mmHg 90%
    02:00 0°C° 0 mm 1 mps 752 mmHg 90%
    03:00 -2°C° 0 mm 2 mps 752 mmHg 90%
    04:00 -2°C° 0 mm 2 mps 752 mmHg 90%
    05:00 -2°C° 0 mm 2 mps 752 mmHg 90%
    06:00 -2°C° 0 mm 2 mps 752 mmHg 89%
    07:00 -2°C° 0 mm 2 mps 753 mmHg 89%
    08:00 -2°C° 0 mm 2 mps 753 mmHg 87%
    09:00 -2°C° 0 mm 2 mps 753 mmHg 86%
    10:00 -2°C° 0 mm 2 mps 753 mmHg 85%
    11:00 -1°C° 0 mm 2 mps 753 mmHg 83%
    12:00 -1°C° 0 mm 2 mps 753 mmHg 82%
    13:00 -1°C° 0 mm 2 mps 753 mmHg 81%
    14:00 -1°C° 0 mm 2 mps 753 mmHg 84%
    15:00 -1°C° 0 mm 2 mps 753 mmHg 86%
    16:00 -2°C° 0 mm 2 mps 753 mmHg 89%
    17:00 -2°C° 0.1 mm 2 mps 753 mmHg 89%
    18:00 -1°C° 0.1 mm 2 mps 753 mmHg 89%
    19:00 -1°C° 0.1 mm 2 mps 754 mmHg 90%
    20:00 -1°C° 0 mm 3 mps 754 mmHg 90%
    21:00 -2°C° 0 mm 3 mps 754 mmHg 90%
    22:00 -2°C° 0 mm 3 mps 753 mmHg 90%
    23:00 -2°C° 0 mm 3 mps 754 mmHg 90%

    15 December, Saturday

    Time Temperature Precipitation Wind Pressure Humidity
    00:00 -2°C° 0 mm 3 mps 754 mmHg 90%
    01:00 -2°C° 0 mm 2 mps 754 mmHg 90%
    02:00 -2°C° 0 mm 3 mps 754 mmHg 89%
    03:00 -2°C° 0 mm 3 mps 754 mmHg 89%
    04:00 -2°C° 0 mm 3 mps 754 mmHg 88%
    05:00 -2°C° 0 mm 3 mps 754 mmHg 89%
    06:00 -2°C° 0 mm 3 mps 754 mmHg 89%
    07:00 -2°C° 0 mm 3 mps 754 mmHg 90%
    08:00 -2°C° 0 mm 3 mps 755 mmHg 88%
    09:00 -2°C° 0 mm 3 mps 755 mmHg 86%
    10:00 -3°C° 0 mm 4 mps 755 mmHg 85%
    11:00 -1°C° 0 mm 3 mps 755 mmHg 84%
    12:00 -1°C° 0 mm 3 mps 755 mmHg 82%
    13:00 -1°C° 0 mm 3 mps 755 mmHg 81%
    14:00 -1°C° 0.1 mm 3 mps 755 mmHg 83%
    15:00 -2°C° 0.1 mm 2 mps 755 mmHg 85%
    16:00 -2°C° 0.1 mm 2 mps 755 mmHg 87%
    17:00 -2°C° 0 mm 2 mps 755 mmHg 88%
    18:00 -2°C° 0 mm 3 mps 755 mmHg 89%
    19:00 -2°C° 0 mm 3 mps 755 mmHg 91%
    20:00 -4°C° 0 mm 3 mps 756 mmHg 91%
    21:00 -3°C° 0 mm 2 mps 756 mmHg 92%
    22:00 -3°C° 0 mm 2 mps 756 mmHg 92%
    23:00 -3°C° 0 mm 2 mps 755 mmHg 93%
    Show more